Regional Weather Roundup
Issued by NWS

Home | Current Version | Previous Version | Text Only | Print | Product List | Glossary Off
Versions: 1 2 3 4 5 6 7 8 9 10 11 12 13 14 15 16 17 18 19 20 21 22 23 24 25 26 27 28 29 30 31 32 33 34 35 36 37 38 39 40 41 42 43 44 45 46 47 48 49 50

000
ASUS43 KFSD 010310
RWRSD

WEATHER ROUNDUP FOR SOUTH DAKOTA
NATIONAL WEATHER SERVICE SIOUX FALLS SD
1000 PM CDT SUN AUG 31 2014

NOTE: "FAIR" INDICATES FEW OR NO CLOUDS BELOW 12,000 FEET WITH NO
SIGNIFICANT WEATHER AND/OR OBSTRUCTIONS TO VISIBILITY.


SDZ001>005-009-010-012>017-010400-
NORTHWEST AND NORTH CENTRAL SOUTH DAKOTA

CITY           SKY/WX    TMP DP  RH WIND       PRES   REMARKS
BUFFALO          N/A     52  49  89 W7        29.80R
FAITH            N/A     57  53  86 NW20      29.81R
MOBRIDGE       MOCLDY    62  61  96 CALM      29.69R
$$

SDZ012>016-024>037-041>051-057-063-072>074-010400-
SOUTHWEST AND SOUTH CENTRAL SOUTH DAKOTA

CITY           SKY/WX    TMP DP  RH WIND       PRES   REMARKS
RAPID CTY ARPT PTCLDY    57  54  89 NW10      29.86R
PIERRE         CLOUDY    64  61  90 W5        29.71R
CUSTER         MOCLDY    50  46  86 W5        29.95R
ELLSWORTH AFB  PTCLDY    58  55  88 N10       29.86R
PHILIP         CLOUDY    60  59  96 W6        29.79R
PINE RIDGE     CLEAR     54  51  90 W5        29.87R
WINNER         LGT RAIN  62  58  86 N17       29.73F
$$

SDZ004>011-016>023-039-040-010400-
NORTHEAST SOUTH DAKOTA

CITY           SKY/WX    TMP DP  RH WIND       PRES   REMARKS
ABERDEEN       PTCLDY    60  60 100 S3        29.66R
WATERTOWN      CLOUDY    62  58  86 W5        29.68R
SISSETON         N/A     61  60  97 CALM      29.64R
$$

SDZ017-020-022-023-036>040-048>070-010400-
SOUTHEAST SOUTH DAKOTA

CITY           SKY/WX    TMP DP  RH WIND       PRES   REMARKS
SIOUX FALLS    CLOUDY    63  60  90 CALM      29.69R
HURON          CLEAR     60  58  92 SW5       29.69R
CHAMBERLAIN    MOCLDY    62  60  93 SW7       29.74R
MITCHELL         N/A     63  60  90 W7        29.71R
YANKTON        MOCLDY    64  61  88 CALM      29.69R
$$

ABBREVIATIONS USED IN REMARKS
   TC - TEMPERATURE IN CELSIUS
  WCI - WIND CHILL INDEX
   HX - HEAT INDEX
  VSB - VISIBILITY




USA.gov is the U.S. government's official web portal to all federal, state and local government web resources and services.